Location: Delettes
(50.6178°N, 2.2123°E)
Time: 04:26:05
(UTC+00:00)

CENTAUR R/B - Pass Details

Date: 27 February 2020
Orbit: 766 x 1422 km, 63.5° (Epoch: 06 April)

Event Time Altitude Azimuth Distance (km) Brightness Sun altitude
Rises 19:08:01 0° 311° (NW) 3,975 6.6 -16.6°
Reaches altitude 10° 19:10:41 10° 317° (NW) 3,104 5.9 -17.0°
Maximum altitude 19:18:07 52° 33° (NNE) 1,580 3.4 -18.2°
Enters shadow 19:22:38 28° 96° (E) 2,340 3.9 -18.9°
